TimeAKDT,TemperatureF,Dew PointF,Humidity,Sea Level PressureIn,VisibilityMPH,Wind Direction,Wind SpeedMPH,Gust SpeedMPH,PrecipitationIn,Events,Conditions,WindDirDegrees,DateUTC
12:53 AM,17.1,7.0,65,30.51,10.0,Calm,Calm,-,N/A,,Partly Cloudy,0,2013-04-19 08:53:00
1:53 AM,14.0,5.0,67,30.51,10.0,Calm,Calm,-,N/A,,Partly Cloudy,0,2013-04-19 09:53:00
2:53 AM,12.0,3.9,70,30.52,10.0,Calm,Calm,-,N/A,,Partly Cloudy,0,2013-04-19 10:53:00
3:53 AM,12.9,6.1,74,30.53,10.0,Calm,Calm,-,N/A,,Partly Cloudy,0,2013-04-19 11:53:00
4:53 AM,12.9,6.1,74,30.53,10.0,Calm,Calm,-,N/A,,Partly Cloudy,0,2013-04-19 12:53:00
5:53 AM,10.0,3.0,73,30.53,10.0,Calm,Calm,-,N/A,,Partly Cloudy,0,2013-04-19 13:53:00
6:53 AM,10.9,3.0,70,30.53,10.0,Calm,Calm,-,N/A,,Partly Cloudy,0,2013-04-19 14:53:00
7:53 AM,10.0,3.9,76,30.55,10.0,Calm,Calm,-,N/A,,Partly Cloudy,0,2013-04-19 15:53:00
8:53 AM,15.1,7.0,70,30.54,10.0,Calm,Calm,-,N/A,,Partly Cloudy,0,2013-04-19 16:53:00
9:53 AM,19.0,8.1,62,30.56,10.0,Calm,Calm,-,N/A,,Partly Cloudy,0,2013-04-19 17:53:00
10:53 AM,21.9,8.1,55,30.56,10.0,Calm,Calm,-,N/A,,Mostly Cloudy,0,2013-04-19 18:53:00
11:53 AM,26.1,7.0,44,30.56,10.0,Calm,Calm,-,N/A,,Mostly Cloudy,0,2013-04-19 19:53:00
12:53 PM,28.0,10.9,49,30.58,10.0,Calm,Calm,-,N/A,,Scattered Clouds,0,2013-04-19 20:53:00
1:53 PM,30.0,9.0,41,30.57,10.0,WNW,3.5,-,N/A,,Clear,300,2013-04-19 21:53:00
2:53 PM,30.0,6.1,36,30.56,10.0,West,4.6,-,N/A,,Scattered Clouds,280,2013-04-19 22:53:00
3:53 PM,30.0,9.0,41,30.55,10.0,West,5.8,-,N/A,,Scattered Clouds,280,2013-04-19 23:53:00
4:53 PM,28.9,10.9,47,30.54,10.0,West,4.6,-,N/A,,Mostly Cloudy,260,2013-04-20 00:53:00
5:53 PM,28.9,10.0,45,30.52,10.0,Calm,Calm,-,N/A,,Mostly Cloudy,0,2013-04-20 01:53:00
6:53 PM,28.9,12.0,49,30.51,10.0,West,4.6,-,N/A,,Mostly Cloudy,280,2013-04-20 02:53:00
7:53 PM,28.0,9.0,45,30.49,10.0,WNW,3.5,-,N/A,,Mostly Cloudy,290,2013-04-20 03:53:00
8:53 PM,26.1,14.0,60,30.48,10.0,WNW,4.6,-,N/A,,Mostly Cloudy,290,2013-04-20 04:53:00
9:53 PM,23.0,14.0,68,30.47,10.0,Calm,Calm,-,N/A,,Overcast,0,2013-04-20 05:53:00
10:53 PM,19.9,12.9,74,30.47,10.0,Calm,Calm,-,N/A,,Overcast,0,2013-04-20 06:53:00
11:53 PM,18.0,10.9,74,30.45,10.0,Calm,Calm,-,N/A,,Overcast,0,2013-04-20 07:53:00